Location: Newark
(54.4333°N, 18.5500°E)
Time: 16:01:49
(UTC+00:00)

Envisat - Pass Details

Date: 10 December 2019
Orbit: 764 x 766 km, 98.1° (Epoch: 28 January)

Event Time Altitude Azimuth Distance (km) Brightness Sun altitude
Rises 17:38:08 0° 200° (SSW) 3,224 6.5 -27.0°
Reaches altitude 10° 17:40:48 10° 213° (SSW) 2,303 5.9 -27.4°
Maximum altitude 17:45:01 26° 269° (W) 1,490 5.1 -28.0°
Drops below altitude 10° 17:49:15 10° 325° (NW) 2,318 5.9 -28.7°
Sets 17:51:57 0° 338° (NNW) 3,249 6.5 -29.0°
